Location: Gleizolles
(44.4833°N, 6.7667°E)
Time: 20:03:47
(UTC+00:00)

Envisat - Pass Details

Date: 04 December 2022
Orbit: 763 x 765 km, 98.2° (Epoch: 05 February)

Event Time Altitude Azimuth Distance (km) Brightness Sun altitude
Rises 03:42:58 0° 14° (NNE) 3,244 6.4 -33.0°
Reaches altitude 10° 03:45:18 10° 16° (NNE) 2,313 5.6 -32.6°
Enters shadow 03:46:08 15° 18° (NNE) 1,987 5.3 -32.4°
